Location: Newark
(13.8117°N, 3.6025°W)
Time: 05:51:57
(UTC+00:00)

Explorer 11/Cluster Stage 4 - Pass Details

Date: 26 August 2019
Orbit: 467 x 1260 km, 28.8° (Epoch: 17 September)

Event Time Altitude Azimuth Distance (km) Brightness Sun altitude
Rises 14:26:11 0° 301° (WNW) 4,190 10.7 58.1°
Reaches altitude 10° 14:29:18 10° 305° (NW) 3,191 10.2 57.3°
Maximum altitude 14:37:09 55° 21° (NNE) 1,346 8.3 55.4°
Drops below altitude 10° 14:43:56 10° 98° (E) 2,764 9.1 53.8°
Sets 14:46:27 0° 103° (ESE) 3,598 9.6 53.2°
